Simultaneous Nadir Overpasses (SNOs) Predictions

Prediction of SNOs between GOES-14 and NOAA-20 Satellite Orbit:

Table of predicted SNOs for the next 14.0 days since TLE Epoch: 2/27/2021
Index Date Time (GOES-14) GOES-14 Lat,Lon NOAA-20 Lat,Lon Distance(km) Time Diff (sec)
1 02/28/2021 20:23:24 -0.03,-104.22 -0.06,-104.25 4.64 80
2 03/03/2021 08:23:48 0.03,-104.41 0.16,-105.00 67.22 80
3 03/04/2021 08:07:43 0.03,-104.41 -0.87,-100.47 450.15 80
4 03/05/2021 20:29:39 -0.04,-104.24 -0.35,-105.76 172.01 80
5 03/06/2021 20:08:13 -0.03,-104.24 0.62,-101.22 343.98 80
6 03/08/2021 08:30:02 0.05,-104.41 0.51,-106.49 237.61 80
7 03/09/2021 08:13:57 0.04,-104.42 -0.52,-101.96 279.79 80
8 03/10/2021 20:35:52 -0.06,-104.27 -0.70,-107.25 339.76 80
9 03/11/2021 20:14:27 -0.05,-104.27 0.28,-102.71 176.51 80
